Torna al catalogo

STARLINK-34854

AttivoComunicazioniVLEO
NORAD 65337·PAYLOAD·🇺🇸 United States

Lanciato Aug 27, 2025 da Cape Canaveral Space Force Station

Loading…

Prossimi Passaggi (prossime 24 ore)

TLE

AggiornatoSource: CelesTrak SupGP

Epoca: Sep 15, 2026, 03:57 UTC

1 65337C 25189Q   26258.16506944  .00009729  00000+0  31288-3 0  2586
2 65337  53.1591  45.3846 0001071  91.4017 286.3317 15.31694656    18

Traccia STARLINK-34854 in tempo reale con AllMySat

Download on the App Store